Location: Azul
(36.7830°S, 59.8500°W)
Time: 09:09:07
(UTC-03:00)

ISS - Pass Details

Date: 10 December 2019
Orbit: 411 x 421 km, 51.6° (Epoch: 11 December)

Event Time Altitude Azimuth Distance (km) Brightness Sun altitude
Exits shadow 01:05:30 15° 161° (SSE) 1,273 -0.6 -30.3°
Drops below altitude 10° 01:06:17 10° 152° (SSE) 1,530 -0.2 -30.2°
Sets 01:08:38 0° 139° (SE) 2,398 0.8 -30.2°
